Wind_Speed
7 7 8 8 8 9 10 11 11 11 11 11 11 11 11 10 9 9 9 9 8 8 9 9 9 8 8 7 7 7 6 5 5 5 4 4 4 3 3 3 3 3 3
7 7 7 8 8 10 11 12 11 11 11 11 12 12 11 10 9 9 9 9 9 8 8 8 8 8 8 8 8 7 6 5 5 5 5 4 3 3 3 3 3 3 3
7 7 7 7 8 10 11 12 12 12 11 11 12 12 11 10 10 10 9 8 8 8 8 8 7 7 8 7 7 6 5 5 6 6 5 4 4 4 4 3 3 3 3
8 7 7 7 8 9 11 12 12 11 11 11 11 11 11 10 10 10 9 8 7 7 7 8 7 7 8 7 6 6 6 6 6 5 4 4 4 3 3 3 4 3 3
9 9 9 8 8 10 11 12 11 11 11 11 11 11 10 10 10 11 9 8 7 7 6 7 7 7 7 6 6 6 6 5 5 4 4 3 3 3 3 2 3 2 2
10 9 9 9 9 10 11 12 11 11 11 10 11 11 11 10 10 10 9 8 8 7 6 6 6 7 7 7 6 5 4 4 4 3 3 3 3 3 3 2 2 1 1
11 10 10 10 10 11 11 11 10 11 10 10 10 10 9 9 9 9 8 8 7 6 6 6 5 5 6 6 6 5 4 4 4 3 3 3 3 3 2 2 2 1 1
11 10 10 10 10 11 10 10 11 10 10 10 9 9 8 8 8 9 9 7 7 6 6 5 4 5 6 7 6 5 5 4 4 3 3 3 3 3 2 2 2 2 1
11 11 10 10 10 10 10 10 10 11 10 10 9 9 8 7 7 8 7 7 5 5 5 4 3 4 5 6 6 5 6 5 4 3 4 4 3 3 2 2 2 2 2
11 10 10 10 10 10 10 11 11 11 10 9 9 9 7 7 7 6 6 5 6 5 5 4 3 3 4 4 5 6 6 5 4 4 4 4 3 3 3 3 3 3 3
10 10 10 10 10 10 10 11 11 10 10 9 9 8 8 7 7 6 6 5 5 5 4 3 4 3 2 3 5 6 6 5 5 4 4 4 4 3 3 3 3 3 4
11 11 11 11 10 11 11 11 10 9 10 10 9 8 7 6 6 6 6 5 4 4 3 3 3 3 3 4 5 6 6 5 5 4 4 5 4 4 4 4 4 4 5
12 12 11 11 11 11 10 10 10 9 9 9 9 7 6 6 5 5 5 4 3 3 3 1 2 2 4 4 4 5 6 6 5 5 5 5 5 5 5 5 5 5 6
12 12 12 11 11 10 9 9 9 9 8 7 6 6 5 5 4 4 3 3 2 2 2 2 1 2 4 4 3 4 3 4 5 5 4 5 6 6 6 6 7 6 7
11 11 11 10 10 9 8 8 8 8 7 6 5 5 5 4 4 3 2 2 2 1 1 2 2 2 3 3 2 3 3 4 5 6 6 6 6 6 7 8 8 9 8
10 10 9 9 9 9 8 7 7 7 6 6 5 5 5 4 3 2 2 1 1 1 1 2 2 3 3 3 3 4 6 5 5 7 7 7 7 7 7 8 8 9 9
9 9 9 8 8 8 7 7 6 6 5 5 5 5 4 3 3 3 2 1 0 1 2 2 3 4 4 3 4 4 5 6 7 7 8 7 7 7 7 8 8 9 9
9 9 9 8 8 7 7 6 6 5 5 5 4 4 3 3 3 2 1 1 1 2 2 3 3 3 3 3 4 5 5 6 6 7 7 7 8 8 8 9 9 9 9
8 8 8 7 7 7 6 6 5 4 4 3 3 3 2 2 1 1 1 2 3 3 3 3 3 3 3 4 5 5 6 6 6 6 6 7 7 8 9 9 9 9 9
9 9 8 8 7 6 6 5 5 4 3 3 3 2 2 2 1 2 2 3 3 4 3 3 3 3 4 4 5 5 6 6 7 6 7 8 8 8 9 10 10 9 9
9 8 8 8 7 7 6 6 5 5 4 4 3 2 2 2 2 2 3 3 4 4 4 4 4 4 5 5 6 6 7 7 8 8 8 9 9 9 10 10 10 10 10
9 8 8 8 7 6 6 6 5 4 4 4 3 2 2 3 3 3 4 4 5 4 4 5 5 5 5 5 6 7 8 9 9 9 9 9 9 9 10 10 11 11 10
8 8 6 6 6 6 5 4 4 4 4 4 4 4 4 4 4 4 5 4 5 5 5 5 5 6 6 6 6 7 8 9 9 10 10 9 10 10 10 10 10 11 11
6 7 7 6 5 5 4 4 4 4 4 5 5 5 5 4 4 5 5 5 5 5 5 5 6 6 7 7 7 7 8 8 9 9 9 10 11 11 11 11 11 11 12
5 5 6 7 6 5 5 5 4 5 5 5 6 6 5 5 5 5 5 5 5 6 6 6 6 7 7 8 8 8 8 9 9 10 10 11 11 12 12 12 13 13 12
4 5 5 5 6 6 6 6 6 6 6 6 7 6 6 5 5 5 5 5 6 6 7 7 7 8 8 9 9 9 9 9 10 11 11 11 11 12 12 13 13 13 14
Wind_Direction
111 125 138 139 139 143 148 148 147 150 149 147 146 146 143 142 143 142 143 145 147 149 149 147 154 157 159 151 148 146 146 136 135 118 103 100 105 105 103 89 81 79 73
111 124 136 141 142 146 148 150 148 148 149 148 148 148 147 144 141 138 137 141 145 147 148 145 150 155 160 159 150 145 140 137 131 124 112 106 102 103 103 87 85 74 77
105 119 130 137 142 150 152 152 151 148 147 148 149 149 148 144 139 138 139 143 144 143 149 152 149 151 156 157 154 156 146 141 134 132 125 118 111 108 101 96 90 83 77
104 114 121 130 139 147 152 153 152 150 147 147 148 148 148 147 144 146 143 148 146 142 142 149 149 153 150 153 156 159 152 143 142 137 133 127 124 121 116 105 92 83 75
100 105 116 129 136 142 148 150 151 150 149 151 149 149 152 152 148 146 148 155 159 149 144 149 152 158 157 155 155 150 151 152 153 152 145 145 145 144 142 119 101 85 72
99 100 109 121 130 137 145 147 147 148 147 145 150 151 154 154 155 151 146 149 157 154 151 148 156 160 164 161 157 153 156 162 163 165 162 162 162 165 171 162 139 120 108
100 100 105 118 126 134 139 142 145 144 145 144 146 151 158 159 161 158 150 146 153 156 151 145 153 165 164 166 165 164 166 172 179 181 178 188 188 186 193 186 168 162 164
97 99 102 110 121 128 134 141 140 139 140 141 142 147 151 159 162 164 155 156 161 166 160 156 172 179 182 177 179 181 188 190 189 181 186 200 204 211 218 209 186 187 200
97 100 103 106 116 128 133 137 140 141 139 138 140 141 138 144 152 154 157 158 160 165 164 165 173 186 195 191 188 190 199 200 199 186 192 206 217 226 218 209 213 214 215
97 101 103 107 112 122 131 136 141 139 137 136 138 138 136 138 139 146 155 158 160 163 172 179 187 187 195 203 199 207 207 210 215 213 210 212 232 242 231 213 221 226 220
95 100 103 108 111 118 127 134 136 134 135 137 138 138 137 135 130 137 145 156 167 163 162 182 194 205 196 214 214 211 212 222 235 234 232 232 243 250 248 234 234 237 228
91 98 102 107 111 117 124 127 128 129 132 134 141 138 129 125 127 132 136 151 158 160 164 170 192 208 224 225 223 224 226 233 239 248 244 243 248 255 261 257 250 248 241
92 97 100 104 108 108 112 119 124 127 126 129 131 128 126 127 130 137 139 149 153 168 188 201 212 212 228 221 231 233 240 235 239 247 250 255 259 258 259 262 262 257 252
91 93 95 97 100 102 108 114 118 120 121 124 127 126 122 123 126 141 142 149 155 170 194 224 226 250 238 231 229 237 239 229 236 246 255 267 268 259 259 263 261 260 258
90 89 93 94 95 99 105 112 115 116 117 119 120 120 119 120 116 120 128 155 145 160 270 278 268 286 252 246 243 235 242 239 245 249 258 270 272 263 261 263 265 270 267
88 91 94 98 99 100 104 112 116 116 117 116 116 117 115 109 106 104 105 120 125 328 323 294 295 277 267 268 260 252 247 247 258 255 255 259 266 267 265 267 267 271 274
86 90 92 99 100 101 103 108 112 111 109 109 111 112 112 105 98 95 91 82 342 314 316 306 302 273 281 282 261 257 269 267 267 263 260 259 265 267 266 266 273 273 273
85 86 87 92 92 95 101 105 104 105 107 109 107 105 102 99 91 86 78 16 340 313 303 295 296 280 279 291 283 282 280 282 278 274 272 268 265 266 269 272 274 274 274
77 79 79 83 85 87 91 97 97 100 102 104 100 93 88 84 77 20 357 349 341 328 313 300 298 295 295 294 292 288 284 290 292 289 286 282 277 273 274 278 276 275 278
73 74 74 75 78 78 79 83 80 76 78 74 76 67 52 30 1 322 301 314 330 325 311 311 316 306 308 301 295 290 285 287 288 288 286 285 284 281 279 280 278 277 281
68 70 68 71 71 70 69 71 69 66 58 48 47 39 25 4 335 316 303 303 308 316 317 315 317 313 310 305 298 288 284 285 286 286 288 283 281 282 279 278 276 279 283
63 66 67 68 66 62 62 65 60 54 46 37 32 13 356 341 330 319 308 307 306 309 312 313 315 311 307 304 301 296 289 290 288 287 287 285 283 283 281 278 276 277 281
57 52 55 58 59 57 56 55 54 43 30 20 20 5 355 349 342 332 322 318 313 309 310 312 314 314 309 304 302 298 296 297 293 288 287 288 286 286 287 286 284 284 282
45 40 37 40 44 43 43 36 32 31 20 13 3 353 350 349 348 344 335 322 317 313 309 307 307 309 311 308 304 302 299 298 299 297 293 289 287 287 290 292 290 292 288
29 27 27 25 24 21 17 15 10 8 6 4 358 349 343 343 338 336 334 325 319 311 303 299 301 305 308 308 307 305 305 302 299 300 295 292 289 288 288 289 290 288 287
8 8 9 9 7 9 9 4 1 357 354 354 355 349 339 335 331 327 324 325 318 312 309 306 303 304 305 305 304 302 304 303 300 298 297 294 291 289 290 291 288 287 288
Height
5872 5872 5872 5873 5873 5874 5875 5876 5878 5879 5880 5881 5882 5883 5884 5885 5886 5886 5887 5887 5888 5889 5890 5891 5892 5893 5894 5894 5895 5896 5897 5897 5898 5898 5898 5899 5899 5899 5899 5899 5898 5898 5898
5873 5872 5873 5873 5873 5875 5876 5877 5878 5879 5880 5881 5883 5884 5885 5885 5886 5887 5887 5888 5889 5890 5891 5891 5892 5893 5894 5895 5896 5897 5897 5898 5899 5899 5899 5899 5899 5899 5900 5899 5899 5899 5899
5873 5873 5873 5874 5874 5875 5876 5877 5879 5880 5881 5882 5883 5884 5885 5886 5887 5888 5889 5889 5890 5890 5891 5892 5893 5893 5894 5895 5896 5897 5898 5899 5899 5900 5900 5900 5900 5900 5900 5900 5900 5900 5899
5874 5874 5873 5874 5875 5876 5876 5878 5879 5880 5881 5883 5884 5885 5886 5887 5888 5889 5889 5890 5890 5891 5892 5893 5894 5894 5895 5896 5897 5898 5898 5899 5900 5900 5900 5900 5901 5901 5901 5901 5900 5900 5900
5875 5874 5874 5875 5876 5876 5878 5879 5880 5881 5882 5883 5885 5886 5887 5887 5888 5889 5890 5891 5891 5892 5892 5893 5894 5895 5896 5897 5897 5898 5899 5900 5900 5900 5901 5901 5901 5901 5901 5901 5901 5901 5901
5876 5876 5876 5876 5877 5878 5879 5880 5881 5882 5883 5884 5885 5886 5887 5888 5889 5890 5891 5891 5892 5893 5893 5894 5895 5896 5896 5898 5898 5899 5900 5900 5900 5901 5901 5901 5901 5901 5901 5901 5901 5901 5901
5877 5877 5878 5878 5878 5879 5880 5881 5882 5883 5884 5885 5886 5887 5888 5889 5890 5891 5892 5892 5893 5894 5894 5895 5895 5896 5897 5898 5899 5899 5900 5900 5900 5901 5901 5901 5901 5901 5901 5901 5901 5901 5902
5880 5880 5880 5880 5880 5881 5881 5882 5883 5884 5885 5886 5887 5888 5889 5890 5891 5891 5892 5893 5894 5894 5895 5895 5896 5896 5897 5898 5898 5899 5900 5900 5900 5900 5901 5901 5901 5901 5901 5901 5901 5901 5901
5882 5882 5881 5882 5882 5882 5882 5883 5884 5885 5886 5887 5888 5889 5890 5890 5891 5892 5893 5894 5894 5895 5895 5896 5896 5897 5897 5897 5898 5899 5899 5900 5901 5901 5901 5901 5901 5901 5901 5901 5901 5901 5901
5884 5884 5884 5883 5883 5883 5884 5885 5885 5886 5887 5888 5889 5890 5891 5891 5892 5893 5893 5894 5895 5895 5896 5896 5896 5896 5897 5897 5898 5899 5899 5900 5900 5901 5900 5900 5900 5900 5900 5900 5900 5900 5900
5886 5886 5886 5885 5885 5885 5886 5886 5887 5888 5888 5889 5890 5891 5891 5892 5893 5893 5894 5894 5895 5895 5895 5896 5896 5896 5897 5897 5898 5898 5899 5899 5900 5900 5900 5900 5900 5900 5900 5900 5900 5900 5900
5889 5888 5888 5888 5887 5887 5887 5888 5889 5889 5890 5890 5891 5891 5892 5893 5894 5894 5894 5895 5895 5895 5896 5896 5896 5896 5896 5897 5898 5898 5898 5899 5899 5899 5900 5900 5900 5900 5899 5899 5899 5899 5899
5891 5891 5890 5890 5890 5890 5890 5890 5891 5891 5892 5892 5892 5893 5894 5894 5895 5895 5895 5895 5895 5896 5896 5896 5896 5896 5896 5897 5897 5897 5898 5898 5898 5899 5899 5899 5899 5899 5898 5898 5898 5898 5897
5894 5893 5893 5893 5892 5892 5892 5893 5893 5893 5894 5894 5894 5895 5895 5896 5896 5896 5896 5896 5896 5896 5896 5896 5896 5896 5896 5896 5896 5897 5897 5897 5898 5898 5898 5898 5898 5898 5897 5897 5897 5896 5896
5896 5895 5895 5895 5895 5895 5895 5895 5895 5895 5896 5896 5896 5896 5896 5896 5896 5896 5896 5896 5896 5896 5896 5896 5896 5896 5896 5896 5896 5896 5897 5897 5897 5897 5897 5897 5896 5896 5896 5896 5895 5895 5894
5898 5898 5897 5897 5897 5896 5896 5896 5897 5897 5897 5897 5897 5897 5897 5897 5897 5897 5897 5897 5897 5896 5896 5896 5895 5896 5896 5896 5896 5896 5896 5896 5896 5895 5895 5895 5895 5895 5894 5894 5894 5893 5893
5900 5900 5899 5899 5899 5898 5898 5898 5898 5898 5898 5898 5898 5898 5898 5898 5897 5897 5897 5897 5897 5897 5896 5896 5895 5895 5895 5895 5895 5895 5895 5895 5894 5894 5894 5894 5893 5893 5892 5892 5892 5891 5891
5903 5902 5901 5901 5900 5900 5900 5899 5899 5899 5899 5898 5898 5898 5898 5898 5898 5898 5897 5897 5897 5896 5896 5896 5895 5894 5895 5895 5895 5894 5894 5894 5893 5893 5892 5892 5891 5891 5891 5890 5890 5889 5889
5905 5904 5903 5903 5902 5901 5901 5901 5900 5900 5900 5899 5899 5899 5899 5898 5898 5898 5898 5897 5897 5896 5896 5895 5894 5894 5894 5894 5893 5893 5893 5892 5892 5891 5891 5890 5890 5889 5889 5888 5888 5887 5887
5906 5905 5905 5904 5903 5903 5902 5902 5901 5901 5901 5900 5900 5899 5899 5898 5898 5898 5898 5897 5896 5896 5895 5894 5894 5894 5893 5893 5892 5892 5891 5891 5890 5890 5889 5889 5888 5887 5886 5886 5885 5885 5884
5908 5907 5906 5905 5905 5904 5903 5903 5902 5902 5901 5901 5900 5899 5899 5899 5898 5897 5897 5896 5896 5895 5895 5894 5894 5893 5893 5892 5891 5891 5890 5889 5889 5888 5887 5886 5886 5885 5884 5883 5883 5882 5882
5910 5909 5908 5907 5906 5905 5904 5904 5903 5902 5902 5901 5900 5900 5899 5898 5898 5897 5897 5896 5895 5894 5894 5893 5893 5892 5892 5891 5890 5889 5888 5888 5887 5886 5885 5884 5884 5882 5881 5881 5880 5880 5879
5911 5910 5909 5908 5907 5906 5905 5904 5904 5903 5902 5901 5900 5900 5899 5898 5897 5896 5896 5895 5894 5894 5893 5892 5892 5891 5890 5889 5888 5888 5887 5886 5885 5884 5883 5882 5882 5881 5879 5878 5878 5877 5876
5913 5911 5910 5909 5908 5907 5906 5905 5904 5903 5903 5901 5900 5899 5898 5897 5896 5896 5895 5894 5893 5893 5892 5891 5890 5890 5889 5888 5887 5886 5885 5884 5883 5882 5881 5880 5879 5878 5877 5876 5875 5874 5873
5914 5912 5911 5910 5909 5908 5907 5906 5904 5903 5902 5901 5900 5899 5898 5897 5896 5895 5894 5893 5892 5891 5890 5890 5889 5888 5887 5886 5885 5884 5882 5881 5880 5880 5879 5878 5876 5875 5874 5874 5873 5872 5871
5914 5913 5912 5911 5910 5909 5907 5906 5905 5903 5902 5901 5900 5899 5897 5896 5895 5894 5893 5892 5891 5890 5889 5888 5887 5886 5885 5884 5882 5881 5880 5879 5878 5877 5876 5874 5873 5873 5872 5871 5869 5869 5868